{"data":{"norad_id":65322,"intl_designator":"2025-188H","name":"FFLY02","alt_names":[],"object_type":"PAYLOAD","status":"ACTIVE","operator":null,"country":"IND","launch_date":"2025-08-26","launch_site_code":"AFWTR","launch_vehicle":null,"mission":null,"orbit_class":"UNKNOWN","rcs_meters":null,"size_class":null,"mass_kg":null,"dimensions":null,"purposes":[],"wikipedia_slug":null,"has_3d_model":false,"image_url":null,"decayed_at":null,"tle_current":{"epoch":"2026-09-20T20:55:48.746208Z","epoch_age_seconds":126667,"freshness":"FRESH","line1":"1 65322U 25188H   26263.87209197  .00000633  00000+0  66524-4 0  9992","line2":"2 65322  97.7291 337.4478 0013056 160.6487 199.5231 14.92850087 58184","mean_motion":14.92850087,"eccentricity":0.0013056,"inclination_deg":97.7291,"raan_deg":337.4478,"arg_perigee_deg":160.6487,"mean_anomaly_deg":199.5231,"bstar":6.6524e-5,"rev_number":5818,"period_min":96.459786052181,"perigee_km":579.95752229102,"apogee_km":598.15025113441,"semimajor_km":6967.1908867127,"source":"CELESTRAK","updated_at":"2026-09-21T09:00:15.251001Z"}}}